Regional Weather Roundup
Issued by NWS

Home | Current Version | Previous Version | Text Only | Print | Product List | Glossary On
Versions: 1 2 3 4 5 6 7 8 9 10 11 12 13 14 15 16 17 18 19 20 21 22 23 24 25 26 27 28 29 30 31 32 33 34 35 36 37 38 39 40 41 42 43 44 45 46 47 48 49 50
000
ASUS44 KEWX 220611
RWRTX
SOUTH TEXAS REGIONAL WEATHER ROUNDUP
NATIONAL WEATHER SERVICE AUSTIN/SAN ANTONIO TX
100 AM CDT FRI MAY 22 2015

NOTE: "FAIR" INDICATED FEW OR NO CLOUDS BELOW 12,000 FEET WITH NO
SIGNIFICANT WEATHER AND/OR OBSTRUCTIONS TO VISIBILITY.

* - THESE STATIONS ARE NOT NWS OR FAA STATIONS...AND ARE NOT SUBJECT
    TO NWS AND FAA QUALITY CONTROL.

TXZ171-172-183>190-220700-
TEXAS HILL COUNTRY AND EDWARDS PLATEAU

CITY           SKY/WX    TMP DP  RH WIND       PRES   REMARKS
JUNCTION       CLOUDY    61  60  97 E6        30.14R FOG
6HR MIN TEMP:  61; 6HR MAX TEMP:  65;

*LLANO         CLOUDY    61  61 100 E3        30.17R FOG
BURNET         CLOUDY    60  58  92 E9        30.14F FOG
6HR MIN TEMP:  60; 6HR MAX TEMP:  62;

*HORSESHOE BAY CLOUDY    62  60  95 E3        30.14R
6HR MIN TEMP:  61; 6HR MAX TEMP:  64;

*KERRVILLE     CLOUDY    61  60  96 NE3       30.13F FOG
6HR MIN TEMP:  61; 6HR MAX TEMP:  64;

*FREDERICKSBRG CLOUDY    60  59  98 E5        30.13F FOG
6HR MIN TEMP:  60; 6HR MAX TEMP:  63;

*ROCKSPRINGS   CLOUDY    63  63 100 E6        30.15S FOG
*BOERNE STAGE    N/A     61  61 100 N5        30.14R
*CASTROVILLE   CLOUDY    67  62  82 NE7       30.12R
HONDO          CLOUDY    67  63  87 NE10      30.12R
6HR MIN TEMP:  67; 6HR MAX TEMP:  72;

*UVALDE        CLOUDY    67  63  85 NE8       30.10S
6HR MIN TEMP:  67; 6HR MAX TEMP:  74;

DEL RIO        LGT RAIN  70  66  87 E10       30.06F
6HR MIN TEMP:  68; 6HR MAX TEMP:  71; 6HR PCP:  0.01;

LAUGHLIN AFB   CLOUDY    70  66  88 SE10      30.08S
CARRIZO SPRGS  CLOUDY    70  66  88 E3        30.07R
$$

TXZ173-191>194-202-209-217>225-228-220700-
CENTRAL AND SOUTH CENTRAL TEXAS

CITY           SKY/WX    TMP DP  RH WIND       PRES   REMARKS
GEORGETOWN     CLOUDY   N/A N/A N/A NE5       30.12R
AUSTIN/BERGSTM CLOUDY    62  62 100 N9        30.11F FOG
6HR MIN TEMP:  62; 6HR MAX TEMP:  65; 6HR PCP: TRACE;

AUSTIN/MABRY   CLOUDY    62  61  96 NE5       30.13S FOG
6HR MIN TEMP:  62; 6HR MAX TEMP:  65;

*AUSTIN/EXEC   CLOUDY    63  63 100 NE8       30.13S FOG
*LAGO VISTA    CLOUDY    61  60  96 NE5       30.14R FOG
6HR MIN TEMP:  61; 6HR MAX TEMP:  63;

SAN MARCOS     CLOUDY    63  61  94 NE12G17   30.11R
6HR MIN TEMP:  63; 6HR MAX TEMP:  66;

NEW BRAUNFELS  CLOUDY    64  62  93 NE10      30.09R
6HR MIN TEMP:  64; 6HR MAX TEMP:  69;

RANDOLPH AFB   CLOUDY    64  61  90 NE13      30.11R
6HR MIN TEMP:  64; 6HR MAX TEMP:  70;

PT SAN ANTONIO CLOUDY    66  62  88 NE10      30.09R
6HR MIN TEMP:  66; 6HR MAX TEMP:  72;

SAN ANTONIO    CLOUDY    66  62  87 NE7       30.12R
6HR MIN TEMP:  66; 6HR MAX TEMP:  72;

STINSON FIELD  CLOUDY    66  62  87 NE8       30.09R
6HR MIN TEMP:  66; 6HR MAX TEMP:  72;

*PLEASANTON    CLOUDY    67  63  86 N8        30.09R
6HR MIN TEMP:  67; 6HR MAX TEMP:  74;

*LA GRANGE     CLOUDY    66  65  96 N7        30.08S FOG
6HR MIN TEMP:  65; 6HR MAX TEMP:  70;

*GIDDINGS      CLOUDY    64  63  97 NE5       30.14S FOG
6HR MIN TEMP:  62; 6HR MAX TEMP:  65;

*GONZALES      CLOUDY    65  64  97 NE8       30.08R
6HR MIN TEMP:  65; 6HR MAX TEMP:  72;

$$

TXZ163>164-176>182-195>201-210>213-226-227-235-220700-
SOUTHEAST TEXAS

CITY           SKY/WX    TMP DP  RH WIND       PRES   REMARKS
COLLEGE STN    CLOUDY    66  65  96 NE8       30.11R FOG
6HR MIN TEMP:  65; 6HR MAX TEMP:  66;

*BRYAN         CLOUDY    65  65 100 NE7       30.12S FOG
6HR MIN TEMP:  63; 6HR MAX TEMP:  65; 6HR PCP:  0.01;

*CALDWELL      DRIZZLE   64  64 100 MISG      30.15R
*CROCKETT      NOT AVBL
*BRENHAM       CLOUDY    68  67  98 NE5       30.10F
6HR MIN TEMP:  67; 6HR MAX TEMP:  74;

HUNTSVILLE     CLOUDY    66  65  96 E5        30.11F
6HR MIN TEMP:  66; 6HR MAX TEMP:  69; 6HR PCP:  0.02;

CONROE         CLOUDY    69  66  90 VRB6      30.10S
6HR MIN TEMP:  69; 6HR MAX TEMP:  75;

HOUSTON BUSH   CLOUDY    71  67  87 E8        30.09S
6HR MIN TEMP:  71; 6HR MAX TEMP:  74;

HOUSTON HOBBY  CLOUDY    72  66  81 E8        30.07F
6HR MIN TEMP:  72; 6HR MAX TEMP:  75; 6HR PCP: TRACE;

*HOUSTON SW AP CLOUDY    73  70  92 NE9       30.07F
6HR MIN TEMP:  73; 6HR MAX TEMP:  76;

PEARLAND       LGT RAIN  72  68  87 N3        30.09S
6HR MIN TEMP:  72; 6HR MAX TEMP:  76; 6HR PCP: TRACE;

HOUSTON HOOKS  CLOUDY    71  67  87 NE7       30.09F
6HR MIN TEMP:  71; 6HR MAX TEMP:  75;

ELLINGTON FLD  MOCLDY    72  70  94 NE6       30.08F
SUGAR LAND     CLOUDY    73  67  81 NE10      30.07F
6HR MIN TEMP:  73; 6HR MAX TEMP:  75; 6HR PCP: TRACE;

*HOUSTON EXEC  CLOUDY    72  68  88 E8        30.09F
*CLEVELAND MUN CLOUDY    69  67  95 CALM      30.11R
6HR MIN TEMP:  68; 6HR MAX TEMP:  73;

*WHARTON       MOCLDY    71  69  94 NE8       30.06F
6HR MIN TEMP:  71; 6HR MAX TEMP:  72; 6HR PCP:  0.05;

*COLUMBUS      CLOUDY    67  66  96 N5        30.08R
6HR MIN TEMP:  67; 6HR MAX TEMP:  75;

$$

TXZ214>216-236>238-220700-
THE UPPER TEXAS COAST

CITY           SKY/WX    TMP DP  RH WIND       PRES   REMARKS
*ORANGE        CLOUDY    67  65  91 NE9       30.11R
6HR MIN TEMP:  67; 6HR MAX TEMP:  71;

PORT ARTHUR    CLOUDY    70  67  90 NE12      30.07F
6HR MIN TEMP:  70; 6HR MAX TEMP:  73;

GALVESTON      CLOUDY    72  70  93 N12       30.08S
6HR MIN TEMP:  72; 6HR MAX TEMP:  77;

ANGLETON       MOCLDY    70  70 100 NE7       30.06S
6HR MIN TEMP:  69; 6HR MAX TEMP:  72;

*BAY CITY      MOCLDY    73  73  99 NE9       30.05F
PALACIOS       PTCLDY    72  71  97 NE10      30.03F
6HR MIN TEMP:  72; 6HR MAX TEMP:  74; 6HR PCP: TRACE;

$$

TXZ229>234-239>247-220700-
TEXAS COASTAL BEND AND RIO GRANDE PLAINS

CITY           SKY/WX    TMP DP  RH WIND       PRES   REMARKS
VICTORIA       CLOUDY    71  70  96 NE9       30.04F
6HR MIN TEMP:  71; 6HR MAX TEMP:  76;

*BEEVILLE      CLOUDY    73  73 100 E8        30.03R
6HR MIN TEMP:  72; 6HR MAX TEMP:  76;

ROCKPORT       MOCLDY    77  74  90 E9        30.01F
6HR MIN TEMP:  75; 6HR MAX TEMP:  78; 6HR PCP:  0.06;

*PORT ARANSAS  CLOUDY    79  75  89 E13       30.01S
6HR MIN TEMP:  73; 6HR MAX TEMP:  79;

*PORT LAVACA   MOCLDY    73  71  95 NE10      30.04F
6HR MIN TEMP:  72; 6HR MAX TEMP:  74;

*INGLESIDE     MOCLDY    77  75  92 E5        30.00F
CORPUS CHRISTI MOCLDY    76  74  93 NE3       30.01R
6HR MIN TEMP:  74; 6HR MAX TEMP:  76; 6HR PCP: TRACE;

CORPUS NAS     MOCLDY    77  76  96 E8        30.00F
6HR MIN TEMP:  73; 6HR MAX TEMP:  77; 6HR PCP:  0.04;

*ROBSTOWN      MOCLDY    74  74 100 E6        30.01S
6HR MIN TEMP:  74; 6HR MAX TEMP:  75;

ALICE          CLOUDY    75  72  90 E8        30.01S FOG
6HR MIN TEMP:  74; 6HR MAX TEMP:  77;

KINGSVILLE NAS PTCLDY    75  75 100 NE5       30.01S FOG
6HR MIN TEMP:  74; 6HR MAX TEMP:  75; 6HR PCP: TRACE;

COTULLA        CLOUDY    72  66  81 NE7       30.07R
6HR MIN TEMP:  72; 6HR MAX TEMP:  78;

*FAITH RANCH     N/A     72  70  94 CALM      30.08R
LAREDO         MOCLDY    73  69  87 CALM      30.07R
6HR MIN TEMP:  73; 6HR MAX TEMP:  79;

$$

TXZ248>255-220700-
DEEP SOUTH TEXAS

CITY           SKY/WX    TMP DP  RH WIND       PRES   REMARKS
BROWNSVILLE    MOCLDY    77  75  93 SE6       29.99S
6HR MIN TEMP:  77; 6HR MAX TEMP:  79;

PORT ISABEL    MOCLDY    79  76  90 SE10      29.99R
6HR MIN TEMP:  79; 6HR MAX TEMP:  80;

*SOUTH PADRE     N/A     79  79 100 S12       30.01R
HARLINGEN      CLOUDY    77  75  93 E5        30.00R



USA.gov is the U.S. government's official web portal to all federal, state and local government web resources and services.